Location: Unspecified
(0.0000°N, 0.0000°E)
Time: 04:19:01
(UTC+00:00)

A-11 Canister half - All Passes

Search period start: 29 January 2015 00:00
Search period end: 08 February 2015 00:00
Orbit: 1516 x 1684 km, 47.2° (Epoch: 26 January)

Date Brightness Start Highest point End Pass type
(mag) Time Alt. Az. Time Alt. Az. Time Alt. Az.
29 Jan - 01:08:49 10° WNW 01:17:49 41° SW 01:26:58 10° SSE visible
29 Jan - 09:53:20 10° S 09:59:11 18° SE 10:05:30 10° E daylight
29 Jan - 11:54:53 10° SW 12:04:42 90° NW 12:14:09 10° NE daylight
29 Jan - 14:04:02 10° W 14:09:59 17° NW 14:15:13 10° N daylight
29 Jan - 22:41:18 10° NNW 22:49:56 40° NE 22:59:01 10° ESE night (unlit)
30 Jan - 00:45:46 10° WNW 00:54:54 45° SW 01:04:13 10° SSE visible
30 Jan - 09:30:56 10° S 09:36:10 16° SE 09:42:00 10° E daylight
30 Jan - 11:31:58 10° SW 11:41:50 84° SE 11:51:17 10° NE daylight
30 Jan - 13:40:31 10° W 13:47:00 19° NW 13:52:51 10° N daylight
30 Jan - 22:18:38 10° NNW 22:27:01 37° NE 22:35:52 10° ESE night (unlit)
31 Jan - 00:22:44 10° WNW 00:31:58 49° SW 00:41:26 10° SSE visible
31 Jan - 09:08:35 10° SSE 09:13:09 15° SE 09:18:23 10° ESE daylight
31 Jan - 11:09:04 10° SW 11:18:56 78° SE 11:28:25 10° NE daylight
31 Jan - 13:17:05 10° W 13:24:03 21° NW 13:30:24 10° N daylight
31 Jan - 21:55:59 10° NNW 22:04:06 33° NE 22:12:42 10° ESE night (unlit)
31 Jan - 23:59:44 10° NW 00:09:03 53° SW 00:18:37 10° SSE visible
01 Feb - 08:46:24 10° SSE 08:50:07 13° SE 08:54:36 10° ESE daylight
01 Feb - 10:46:12 10° SSW 10:56:03 72° SE 11:05:31 10° NE daylight
01 Feb - 12:53:42 10° W 13:01:06 23° NW 13:07:55 10° N daylight
01 Feb - 21:33:22 10° N 21:41:10 30° NE 21:49:30 10° ESE night (unlit)
01 Feb - 23:36:46 10° NW 23:46:08 58° SW 23:55:49 10° SSE night (unlit)
02 Feb - 08:24:29 10° SSE 08:27:05 12° SE 08:30:32 10° ESE daylight
02 Feb - 10:23:20 10° SSW 10:33:09 66° SE 10:42:36 10° NE daylight
02 Feb - 12:30:23 10° W 12:38:09 26° NW 12:45:22 10° N daylight
02 Feb - 21:10:46 10° N 21:18:14 28° NE 21:26:15 10° ESE visible
02 Feb - 23:13:48 10° NW 23:23:13 63° SW 23:32:59 10° SSE night (unlit)
03 Feb - 01:27:07 10° SW 01:29:24 11° SW 01:30:45 10° SSW visible
03 Feb - 08:03:27 10° SE 08:04:01 10° SE 08:05:34 10° SE daylight
03 Feb - 10:00:30 10° SSW 10:10:15 61° SE 10:19:39 10° NE daylight
03 Feb - 12:07:07 10° WSW 12:15:13 28° NW 12:22:48 10° N daylight
03 Feb - 20:48:12 10° N 20:55:18 25° NE 21:02:57 10° E visible
03 Feb - 22:50:53 10° NW 23:00:20 68° SW 23:10:08 10° SSE night (unlit)
04 Feb - 01:02:35 10° WSW 01:06:20 12° SW 01:09:16 10° SSW visible
04 Feb - 09:37:40 10° SSW 09:47:19 56° SE 09:56:42 10° NE daylight
04 Feb - 11:43:52 10° WSW 11:52:17 31° NW 12:00:12 10° N daylight
04 Feb - 20:25:41 10° N 20:32:21 23° NE 20:39:37 10° E visible
04 Feb - 22:27:58 10° NW 22:37:26 74° SW 22:47:16 10° SSE night (unlit)
05 Feb - 00:38:36 10° WSW 00:43:18 13° SW 00:47:15 10° SSW visible
05 Feb - 09:14:51 10° SSW 09:24:25 52° SE 09:33:42 10° ENE daylight
05 Feb - 11:20:40 10° WSW 11:29:22 34° NW 11:37:34 10° NNE daylight
05 Feb - 20:03:12 10° N 20:09:24 20° NE 20:16:14 10° E visible
05 Feb - 22:05:04 10° NW 22:14:32 80° SW 22:24:23 10° SE visible
06 Feb - 00:14:53 10° WSW 00:20:16 15° SW 00:25:02 10° SSW visible
06 Feb - 08:52:03 10° SSW 09:01:30 48° SE 09:10:42 10° ENE daylight
06 Feb - 10:57:30 10° WSW 11:06:27 37° NW 11:14:54 10° NNE daylight
06 Feb - 19:40:47 10° N 19:46:26 18° NE 19:52:47 10° E visible
06 Feb - 21:42:12 10° NW 21:51:40 86° SW 22:01:29 10° SE visible
06 Feb - 23:51:18 10° W 23:57:15 17° SW 00:02:40 10° S visible
07 Feb - 08:29:17 10° SSW 08:38:33 44° SE 08:47:40 10° ENE daylight
07 Feb - 10:34:22 10° WSW 10:43:32 41° NW 10:52:13 10° NNE daylight
07 Feb - 19:18:26 10° N 19:23:28 16° NE 19:29:14 10° E visible
07 Feb - 21:19:20 10° NW 21:28:46 88° NE 21:38:35 10° SE visible
07 Feb - 23:27:49 10° W 23:34:15 18° SW 23:40:14 10° S night (unlit)
